Blacksburg, VA

8:18 PM EST on February 17, 2018 (GMT -0500)
Virginia Tech

Weather History for KBCB - April, 2012

Change the Weather History Date:

Wednesday, April 4, 2012

  Actual Average Record
Temperature  
Mean Temperature 62 °F 47 °F  
Max Temperature 74 °F 60 °F 83 °F (1963)
Min Temperature 50 °F 35 °F 20 °F (1975)
Degree Days  
Heating Degree Days 3 18  
Month to date heating degree days 26 73  
Since 1 July heating degree days 3930 4848  
Cooling Degree Days 0 0  
Month to date cooling degree days 0 0  
Year to date cooling degree days 0 0  
Growing Degree Days 15 (Base 50)    
Moisture  
Dew Point 58 °F    
Average Humidity 77    
Maximum Humidity 100    
Minimum Humidity 53    
Precipitation  
Precipitation 0.27 in 0.12 in 2.00 in (1974)
Month to date precipitation 0.27 0.47  
Year to date precipitation 9.72 10.00  
Snow  
Snow 0.00 in - - ()
Month to date snowfall 0.0  
Since 1 July snowfall 10.0  
Snow Depth 0.00 in    
Sea Level Pressure  
Sea Level Pressure 29.85 in    
Wind  
Wind Speed 4 mph (West)    
Max Wind Speed 14 mph    
Max Gust Speed 30 mph    
Visibility 9 miles    
Events Rain , Thunderstorm    
T = Trace of Precipitation, MM = Missing Value Source: NWS Daily Summary

Daily Weather History Graph

Daily Weather History Graph

Search for Another Location

Airport or City:

Trip Planner

Search our weather history database for the weather conditions in past years. The results will help you decide how hot, cold, wet, or windy it might be!

Date:

Astronomy

Apr. 04, 2012 Rise Set
Actual Time 7:02 AM EDT 7:47 PM EDT
Civil Twilight 6:35 AM EDT 8:13 PM EDT
Nautical Twilight 6:04 AM EDT 8:44 PM EDT
Astronomical Twilight 5:32 AM EDT 9:17 PM EDT
Moon 5:41 PM EDT (4/4) 5:20 AM EDT (4/4)
Length of Visible Light 13h 37m
Length of Day
12h 45m
Waxing Gibbous, 93% of the Moon is Illuminated
Apr 4
Waxing Gibbous
Apr 6
Full
Apr 13
Last Quarter
Apr 21
New
Apr 29
First Quarter

Hourly Weather History & Observations

Time (EDT) Temp. Dew Point Humidity Pressure Visibility Wind Dir Wind Speed Gust Speed Precip Events Conditions
12:15 AM 57.2 °F 57.2 °F 100% 29.93 in 10.0 mi Calm Calm - N/A   Clear
12:35 AM 57.2 °F 57.2 °F 100% 29.91 in 10.0 mi Calm Calm - N/A   Clear
12:55 AM 57.2 °F 57.2 °F 100% 29.91 in 10.0 mi Calm Calm - N/A   Clear
1:15 AM 57.2 °F 57.2 °F 100% 29.92 in 10.0 mi WNW 3.5 mph - N/A   Clear
1:35 AM 57.2 °F 55.4 °F 94% 29.93 in 10.0 mi West 3.5 mph - N/A   Clear
1:55 AM 57.2 °F 55.4 °F 94% 29.92 in 10.0 mi West 3.5 mph - N/A   Clear
2:15 AM 57.2 °F 55.4 °F 94% 29.92 in 10.0 mi Calm Calm - N/A   Clear
2:35 AM 57.2 °F 55.4 °F 94% 29.91 in 10.0 mi Calm Calm - N/A   Clear
2:55 AM 57.2 °F 57.2 °F 100% 29.90 in 10.0 mi Calm Calm - N/A   Clear
3:15 AM 57.2 °F 55.4 °F 94% 29.90 in 10.0 mi West 4.6 mph - N/A   Clear
3:35 AM 57.2 °F 55.4 °F 94% 29.89 in 10.0 mi Calm Calm - N/A   Clear
3:55 AM 57.2 °F 55.4 °F 94% 29.89 in 10.0 mi Calm Calm - N/A   Clear
4:15 AM 55.4 °F 55.4 °F 100% 29.89 in 10.0 mi Calm Calm - N/A   Clear
4:35 AM 55.4 °F 55.4 °F 100% 29.89 in 10.0 mi Calm Calm - N/A   Clear
4:55 AM 53.6 °F 53.6 °F 100% 29.89 in 5.0 mi Calm Calm - N/A   Clear
5:15 AM 53.6 °F 53.6 °F 100% 29.89 in 4.0 mi Calm Calm - N/A   Clear
5:35 AM 53.6 °F 53.6 °F 100% 29.89 in 5.0 mi West 3.5 mph - N/A   Clear
5:55 AM 53.6 °F 53.6 °F 100% 29.89 in 7.0 mi Calm Calm - N/A   Clear
6:15 AM 53.6 °F 53.6 °F 100% 29.89 in 7.0 mi Calm Calm - N/A   Clear
6:55 AM 53.6 °F 53.6 °F 100% 29.88 in 7.0 mi Calm Calm - N/A   Clear
7:15 AM 53.6 °F 53.6 °F 100% 29.89 in 5.0 mi Calm Calm - N/A   Clear
7:35 AM 53.6 °F 53.6 °F 100% 29.89 in 5.0 mi Calm Calm - N/A   Clear
7:55 AM 53.6 °F 53.6 °F 100% 29.89 in 5.0 mi Calm Calm - N/A   Clear
8:15 AM 55.4 °F 55.4 °F 100% 29.89 in 5.0 mi Calm Calm - N/A   Clear
8:55 AM 62.6 °F 57.2 °F 82% 29.88 in 10.0 mi WSW 3.5 mph - N/A   Clear
9:15 AM 64.4 °F 57.2 °F 77% 29.88 in 10.0 mi West 3.5 mph - N/A   Clear
9:35 AM 66.2 °F 57.2 °F 73% 29.87 in 10.0 mi West 4.6 mph - N/A   Clear
9:55 AM 66.2 °F 57.2 °F 73% 29.87 in 10.0 mi West 6.9 mph - N/A   Clear
10:15 AM 66.2 °F 57.2 °F 73% 29.87 in 10.0 mi West 6.9 mph - N/A   Clear
10:35 AM 68.0 °F 57.2 °F 68% 29.87 in 10.0 mi West 5.8 mph 17.3 mph N/A   Scattered Clouds
11:15 AM 69.8 °F 57.2 °F 64% 29.87 in 10.0 mi West 4.6 mph - N/A   Scattered Clouds
11:35 AM 69.8 °F 59.0 °F 68% 29.87 in 10.0 mi West 9.2 mph 23.0 mph N/A   Clear
11:55 AM 71.6 °F 60.8 °F 69% 29.86 in 10.0 mi WNW 8.1 mph - N/A   Clear
12:15 PM 71.6 °F 59.0 °F 64% 29.86 in 10.0 mi West 9.2 mph 16.1 mph N/A   Clear
12:35 PM 73.4 °F 60.8 °F 65% 29.85 in 10.0 mi NW 11.5 mph 16.1 mph N/A   Clear
12:55 PM 73.4 °F 60.8 °F 65% 29.85 in 10.0 mi West 9.2 mph 17.3 mph N/A   Clear
1:15 PM 73.4 °F 60.8 °F 65% 29.84 in 10.0 mi WNW 6.9 mph - N/A   Mostly Cloudy
1:35 PM 73.4 °F 60.8 °F 65% 29.84 in 10.0 mi WNW 10.4 mph - N/A   Scattered Clouds
1:55 PM 73.4 °F 60.8 °F 65% 29.82 in 10.0 mi West 6.9 mph - N/A   Scattered Clouds
2:15 PM 75.2 °F 60.8 °F 61% 29.81 in 10.0 mi WNW 8.1 mph - N/A   Scattered Clouds
2:35 PM 77.0 °F 60.8 °F 57% 29.80 in 10.0 mi WSW 6.9 mph - N/A   Scattered Clouds
2:55 PM 73.4 °F 55.4 °F 53% 29.79 in 1.0 mi NNW 6.9 mph 10.4 mph N/A   Haze
3:15 PM 73.4 °F 57.2 °F 57% 29.78 in 10.0 mi Calm Calm - N/A   Mostly Cloudy
3:35 PM 73.4 °F 57.2 °F 57% 29.76 in 10.0 mi West 4.6 mph - N/A Thunderstorm Scattered Clouds
3:55 PM 66.2 °F 59.0 °F 78% 29.78 in 5.0 mi NW 13.8 mph 29.9 mph 0.02 in Rain , Thunderstorm Heavy Thunderstorms and Rain
4:15 PM 66.2 °F 60.8 °F 83% 29.75 in 10.0 mi Calm Calm - 0.11 in Rain Light Rain
4:35 PM 69.8 °F 60.8 °F 73% 29.75 in 10.0 mi WNW 3.5 mph - 0.11 in Thunderstorm Thunderstorm
4:55 PM 69.8 °F 60.8 °F 73% 29.74 in 10.0 mi Calm Calm - 0.11 in   Scattered Clouds
5:15 PM 66.2 °F 60.8 °F 83% 29.76 in 10.0 mi WNW 9.2 mph - N/A Rain Rain
5:35 PM 64.4 °F 62.6 °F 94% 29.74 in 10.0 mi Calm Calm - 0.04 in Rain , Thunderstorm Light Thunderstorms and Rain
6:15 PM 64.4 °F 60.8 °F 88% 29.75 in 10.0 mi Calm Calm - N/A Rain Rain
6:35 PM 64.4 °F 62.6 °F 94% 29.76 in 10.0 mi WNW 4.6 mph - N/A   Scattered Clouds
6:55 PM 64.4 °F 60.8 °F 88% 29.77 in 10.0 mi WNW 4.6 mph - N/A   Scattered Clouds
7:15 PM 64.4 °F 60.8 °F 88% 29.76 in 10.0 mi Calm Calm - N/A   Clear
7:35 PM 62.6 °F 60.8 °F 94% 29.76 in 10.0 mi Calm Calm - N/A   Mostly Cloudy
7:55 PM 62.6 °F 60.8 °F 94% 29.76 in 10.0 mi Calm Calm - N/A   Scattered Clouds
8:15 PM 60.8 °F 60.8 °F 100% 29.76 in 10.0 mi West 3.5 mph - N/A   Clear
8:35 PM 62.6 °F 59.0 °F 88% 29.76 in 10.0 mi West 5.8 mph - N/A   Scattered Clouds
8:55 PM 62.6 °F 57.2 °F 82% 29.77 in 10.0 mi WNW 8.1 mph - N/A   Mostly Cloudy
9:35 PM 62.6 °F 59.0 °F 88% 29.77 in 10.0 mi Calm Calm - N/A   Scattered Clouds
9:55 PM 62.6 °F 59.0 °F 88% 29.77 in 10.0 mi West 5.8 mph - N/A   Scattered Clouds
10:15 PM 60.8 °F 59.0 °F 94% 29.78 in 10.0 mi WSW 5.8 mph - N/A   Mostly Cloudy
10:35 PM 62.6 °F 57.2 °F 82% 29.78 in 10.0 mi West 6.9 mph - N/A   Mostly Cloudy
10:55 PM 62.6 °F 57.2 °F 82% 29.78 in 10.0 mi WNW 5.8 mph - N/A   Scattered Clouds
11:15 PM 62.6 °F 57.2 °F 82% 29.78 in 10.0 mi West 3.5 mph - N/A   Clear
11:35 PM 62.6 °F 57.2 °F 82% 29.78 in 10.0 mi West 4.6 mph - N/A   Scattered Clouds
11:55 PM 60.8 °F 57.2 °F 88% 29.78 in 10.0 mi Calm Calm - N/A   Scattered Clouds